Find Starlink 36961

NORAD ID: 68900 Int'l Des: 2026-097 Owner: SPXS Country: US Constellation: starlink operational
LEOCIRCULARRETROGRADE

現在のビュー

3D地球を読み込み中...

About Starlink 36961

Starlink 36961 (NORAD 68900) is a starlink constellation satellite (v2 mini) launched Apr 30, 2026 by SPXS of US. It operates in LEO, CIRCULAR, RETROGRADE orbit with a mass of 575.00 kg.

Starlink 36961について

説明を読み込み中...

次回通過

Passes for default location (London). Set your location on the main map for personalized predictions.

高度履歴

Loading altitude history...

軌道要素

1 68900U 26097F 26170.26838968 .00016299 00000-0 50602-3 0 9996
2 68900 97.2857 5.7283 0001772 98.5015 261.6429 15.33449746 7804
Epoch: Jun 19, 2026 • Age: 17 hours

現在のステータス

高度 481.6 km
速度 7.62 km/s
衛星直下点 -40.14°S, 73.83°W
打ち上げ日 Apr 30, 2026
運用期間 0.1 years
タイプ internet

技術仕様

分類 Payload
質量 575.00 kg
乾燥質量 530.00 kg
総質量 575.00 kg
長さ 0.30 m
直径 4.10 m
スパン 29.00 m
形状 Box + pan
製造者 SPXS
バスタイプ Starlink V2MO
フェーズステータス In Orbit
所有者/国 SPXS/US

Most Searched